GW6483 Weather Reports


Display with metric or nautical units.
time (UTC)temp
F
wind
direction
speed
MPH
gust
MPH
rain 1hr
in
rain 24hr
in
rain mn
in
humidity
%
barometer
mb
20260509013116 71 125 5.0 10.0 0.00 0.00 0.00 50 1023.0
20260509012616 72 93 6.0 10.0 0.00 0.00 0.00 48 1023.0
20260509012116 71 155 3.0 5.0 0.00 0.00 0.00 48 1023.0
20260509011615 70 202 3.0 3.0 0.00 0.00 0.00 48 1024.0
20260509011117 70 126 3.0 4.0 0.00 0.00 0.00 50 1024.0
20260509010615 69 180 0.0 4.0 0.00 0.00 0.00 49 1023.0
20260509010116 69 305 3.0 4.0 0.00 0.00 0.00 50 1024.0
20260509005615 69 167 2.0 3.0 0.00 0.00 0.00 51 1024.0
20260509005115 68 142 2.0 4.0 0.00 0.00 0.00 51 1024.0
20260509004617 68 125 1.0 5.0 0.00 0.00 0.00 50 1024.0
20260509004116 68 232 1.0 5.0 0.00 0.00 0.00 50 1024.0
20260509003615 69 197 3.0 5.0 0.00 0.00 0.00 50 1024.0
20260509003116 69 204 1.0 6.0 0.00 0.00 0.00 49 1024.0
20260509002615 67 158 1.0 4.0 0.00 0.00 0.00 51 1024.0
20260509002115 67 268 3.0 4.0 0.00 0.00 0.00 51 1024.0
20260509001616 66 172 0.0 4.0 0.00 0.00 0.00 52 1024.0
20260509001116 66 242 4.0 5.0 0.00 0.00 0.00 52 1024.0
20260509000616 67 238 3.0 4.0 0.00 0.00 0.00 50 1024.0
20260509000116 66 267 2.0 4.0 0.00 0.00 0.00 51 1024.0
20260508235618 66 168 5.0 8.0 0.00 0.00 0.00 49 1024.0
20260508235115 66 141 3.0 6.0 0.00 0.00 0.00 51 1024.0
20260508234615 66 146 4.0 8.0 0.00 0.00 0.00 51 1024.0
20260508234116 66 243 0.0 7.0 0.00 0.00 0.00 50 1024.0
20260508233615 65 164 3.0 5.0 0.00 0.00 0.00 51 1024.0
20260508233115 64 226 7.0 8.0 0.00 0.00 0.00 52 1024.0
20260508232615 63 212 7.0 8.0 0.00 0.00 0.00 53 1024.0
20260508232116 63 218 4.0 5.0 0.00 0.00 0.00 52 1024.0
20260508231615 62 189 5.0 6.0 0.00 0.00 0.00 53 1024.0
20260508231118 61 194 6.0 7.0 0.00 0.00 0.00 54 1024.0
20260508230616 61 155 3.0 6.0 0.00 0.00 0.00 54 1024.0
20260508230115 61 181 6.0 7.0 0.00 0.00 0.00 53 1023.0
20260508225616 61 158 4.0 8.0 0.00 0.00 0.00 53 1023.0
20260508225116 61 264 3.0 6.0 0.00 0.00 0.00 54 1024.0
20260508224617 60 192 4.0 7.0 0.00 0.00 0.00 55 1023.0
20260508224115 60 146 2.0 5.0 0.00 0.00 0.00 55 1023.0
20260508223616 60 103 2.0 5.0 0.00 0.00 0.00 56 1023.0
20260508223115 59 161 3.0 6.0 0.00 0.00 0.00 57 1023.0
20260508222615 59 170 3.0 5.0 0.00 0.00 0.00 58 1023.0
20260508222117 59 126 2.0 3.0 0.00 0.00 0.00 58 1023.0
20260508221615 58 253 2.0 6.0 0.00 0.00 0.00 58 1023.0
20260508221115 58 158 1.0 5.0 0.00 0.00 0.00 59 1023.0
20260508220617 58 172 2.0 5.0 0.00 0.00 0.00 59 1023.0
20260508220117 58 104 1.0 5.0 0.00 0.00 0.00 60 1023.0
20260508215617 57 222 1.0 3.0 0.00 0.00 0.00 60 1023.0
20260508215116 57 215 3.0 4.0 0.00 0.00 0.00 60 1023.0
20260508214615 57 188 3.0 3.0 0.00 0.00 0.00 60 1023.0
20260508214115 57 159 3.0 3.0 0.00 0.00 0.00 60 1023.0
20260508213615 56 180 2.0 4.0 0.00 0.00 0.00 60 1023.0
20260508213115 56 193 1.0 3.0 0.00 0.00 0.00 60 1022.0
20260508212617 56 68 0.0 4.0 0.00 0.00 0.00 61 1022.0
20260508212117 55 137 1.0 3.0 0.00 0.00 0.00 62 1023.0
20260508211616 55 176 0.0 2.0 0.00 0.00 0.00 63 1022.0
20260508211115 55 205 0.0 3.0 0.00 0.00 0.00 63 1022.0
20260508210616 54 161 2.0 3.0 0.00 0.00 0.00 64 1022.0
20260508210116 54 85 2.0 4.0 0.00 0.00 0.00 65 1022.0
20260508205616 53 290 1.0 2.0 0.00 0.00 0.00 66 1022.0
20260508205116 53 124 1.0 3.0 0.00 0.00 0.00 66 1022.0
20260508204617 53 155 0.0 3.0 0.00 0.00 0.00 66 1022.0
20260508204117 53 180 1.0 3.0 0.00 0.00 0.00 66 1022.0
20260508203615 53 220 1.0 3.0 0.00 0.00 0.00 66 1022.0
20260508203115 52 160 3.0 3.0 0.00 0.00 0.00 66 1022.0
20260508202618 52 169 1.0 5.0 0.00 0.00 0.00 66 1022.0
20260508202116 53 135 1.0 2.0 0.00 0.00 0.00 65 1022.0
20260508201615 53 194 0.0 3.0 0.00 0.00 0.00 65 1022.0
20260508201115 53 183 0.0 4.0 0.00 0.00 0.00 65 1022.0
20260508200617 53 153 2.0 4.0 0.00 0.00 0.00 64 1022.0
20260508200115 53 205 0.0 3.0 0.00 0.00 0.00 64 1022.0
20260508195617 53 141 3.0 3.0 0.00 0.00 0.00 64 1022.0
20260508195117 53 160 2.0 3.0 0.00 0.00 0.00 63 1021.0
20260508194617 53 179 2.0 3.0 0.00 0.00 0.00 63 1021.0
20260508194115 54 146 2.0 5.0 0.00 0.00 0.00 62 1021.0
20260508193617 54 151 2.0 4.0 0.00 0.00 0.00 62 1021.0
20260508193117 54 173 2.0 5.0 0.00 0.00 0.00 62 1021.0
20260508192617 54 125 1.0 3.0 0.00 0.00 0.00 61 1021.0
20260508192117 54 222 1.0 3.0 0.00 0.00 0.00 60 1021.0
20260508191617 54 158 1.0 4.0 0.00 0.00 0.00 60 1021.0
20260508191117 54 221 1.0 4.0 0.00 0.00 0.00 59 1021.0
20260508190616 55 241 0.0 2.0 0.00 0.00 0.00 59 1021.0
20260508190115 55 165 2.0 4.0 0.00 0.00 0.00 58 1021.0
20260508185615 55 202 0.0 5.0 0.00 0.00 0.00 59 1021.0
20260508185115 54 171 2.0 7.0 0.00 0.00 0.00 59 1021.0
20260508184615 54 112 1.0 3.0 0.00 0.00 0.00 60 1021.0
20260508184115 54 214 0.0 2.0 0.00 0.00 0.00 60 1021.0
20260508183617 54 170 0.0 3.0 0.00 0.00 0.00 60 1021.0
20260508183118 54 209 0.0 2.0 0.00 0.00 0.00 61 1021.0
20260508182616 54 203 2.0 2.0 0.00 0.00 0.00 61 1021.0
20260508182116 54 190 1.0 4.0 0.00 0.00 0.00 60 1021.0
20260508181617 54 211 0.0 3.0 0.00 0.00 0.00 60 1021.0
20260508181116 54 212 2.0 3.0 0.00 0.00 0.00 61 1021.0
20260508180617 54 142 0.0 3.0 0.00 0.00 0.00 61 1021.0
20260508180116 54 149 0.0 3.0 0.00 0.00 0.00 61 1021.0
20260508175618 54 189 2.0 3.0 0.00 0.00 0.00 61 1021.0
20260508175116 54 151 1.0 3.0 0.00 0.00 0.00 60 1021.0
20260508174615 54 324 1.0 4.0 0.00 0.00 0.00 60 1021.0
20260508174116 54 134 2.0 4.0 0.00 0.00 0.00 60 1021.0
20260508173618 54 179 1.0 3.0 0.00 0.00 0.00 60 1021.0
20260508173116 54 213 2.0 3.0 0.00 0.00 0.00 61 1021.0
20260508172616 54 105 3.0 3.0 0.00 0.00 0.00 60 1021.0
20260508172116 54 180 3.0 6.0 0.00 0.00 0.00 60 1021.0
20260508171615 54 220 2.0 3.0 0.00 0.00 0.00 60 1021.0
20260508171117 54 47 0.0 4.0 0.00 0.00 0.00 60 1021.0
20260508170616 54 57 0.0 2.0 0.00 0.00 0.00 60 1020.0
20260508170116 54 177 3.0 4.0 0.00 0.00 0.00 59 1021.0
20260508165616 54 160 0.0 4.0 0.00 0.00 0.00 59 1021.0
20260508165116 54 167 3.0 4.0 0.00 0.00 0.00 59 1021.0
20260508164616 54 148 3.0 4.0 0.00 0.00 0.00 59 1021.0
20260508164118 54 169 4.0 5.0 0.00 0.00 0.00 58 1020.0
20260508163618 54 181 2.0 4.0 0.00 0.00 0.00 58 1021.0
20260508163120 54 123 2.0 3.0 0.00 0.00 0.00 58 1021.0
20260508162616 54 137 3.0 4.0 0.00 0.00 0.00 58 1021.0
20260508162116 54 80 0.0 2.0 0.00 0.00 0.00 58 1021.0
20260508161617 54 200 0.0 2.0 0.00 0.00 0.00 58 1020.0
20260508161116 54 145 3.0 4.0 0.00 0.00 0.00 59 1020.0
20260508160615 54 23 2.0 3.0 0.00 0.00 0.00 58 1020.0
20260508160116 54 67 1.0 4.0 0.00 0.00 0.00 59 1020.0
20260508155616 55 64 2.0 3.0 0.00 0.00 0.00 58 1020.0
20260508155116 55 217 3.0 3.0 0.00 0.00 0.00 56 1020.0
20260508154616 55 148 2.0 3.0 0.00 0.00 0.00 56 1020.0
20260508154116 54 130 1.0 4.0 0.00 0.00 0.00 58 1020.0
20260508153616 53 179 3.0 3.0 0.00 0.00 0.00 60 1020.0
20260508153116 53 115 2.0 3.0 0.00 0.00 0.00 61 1020.0
20260508152615 53 61 2.0 4.0 0.00 0.00 0.00 61 1020.0
20260508152118 54 44 2.0 3.0 0.00 0.00 0.00 60 1020.0
20260508151616 54 128 3.0 4.0 0.00 0.00 0.00 60 1020.0
20260508151115 54 91 1.0 3.0 0.00 0.00 0.00 59 1020.0
20260508150623 55 54 4.0 4.0 0.00 0.00 0.00 58 1020.0
20260508150117 55 135 1.0 4.0 0.00 0.00 0.00 57 1020.0
20260508145616 55 38 3.0 4.0 0.00 0.00 0.00 55 1020.0
20260508145116 55 159 1.0 4.0 0.00 0.00 0.00 56 1020.0
20260508144618 56 183 1.0 4.0 0.00 0.00 0.00 55 1020.0
20260508144116 56 195 2.0 3.0 0.00 0.00 0.00 55 1020.0
20260508143616 56 208 2.0 5.0 0.00 0.00 0.00 55 1020.0
20260508143116 56 58 0.0 3.0 0.00 0.00 0.00 55 1020.0
20260508142617 56 193 3.0 5.0 0.00 0.00 0.00 54 1020.0
20260508142116 56 140 0.0 5.0 0.00 0.00 0.00 54 1020.0
20260508141616 56 169 2.0 6.0 0.00 0.00 0.00 55 1020.0
20260508141118 56 111 2.0 5.0 0.00 0.00 0.00 55 1020.0
20260508140616 56 175 3.0 4.0 0.00 0.00 0.00 56 1020.0
20260508140116 56 63 2.0 3.0 0.00 0.00 0.00 56 1020.0
20260508135616 56 178 3.0 4.0 0.00 0.00 0.00 56 1020.0
20260508135116 56 115 3.0 5.0 0.00 0.00 0.00 56 1020.0
20260508134618 56 168 2.0 3.0 0.00 0.00 0.00 56 1020.0
20260508134117 57 171 1.0 7.0 0.00 0.00 0.00 56 1020.0
20260508133616 56 151 3.0 5.0 0.00 0.00 0.00 55 1020.0
20260508133117 57 133 2.0 3.0 0.00 0.00 0.00 55 1020.0
20260508132616 57 138 2.0 5.0 0.00 0.00 0.00 54 1020.0
20260508132115 57 164 4.0 5.0 0.00 0.00 0.00 54 1020.0
20260508131617 57 356 3.0 5.0 0.00 0.00 0.00 54 1020.0
20260508131116 58 145 1.0 3.0 0.00 0.00 0.00 54 1020.0
20260508130615 58 144 2.0 5.0 0.00 0.00 0.00 54 1020.0
20260508130115 58 162 1.0 2.0 0.00 0.00 0.00 54 1020.0
20260508125615 58 188 3.0 4.0 0.00 0.00 0.00 57 1020.0
20260508125117 58 197 1.0 3.0 0.00 0.00 0.00 56 1020.0
20260508124618 57 142 3.0 3.0 0.00 0.00 0.00 55 1020.0
20260508124118 58 28 2.0 4.0 0.00 0.00 0.00 55 1020.0
20260508123618 58 96 0.0 3.0 0.00 0.00 0.00 55 1020.0
20260508123116 57 201 3.0 5.0 0.00 0.00 0.00 54 1020.0
20260508122615 57 138 0.0 2.0 0.00 0.00 0.00 53 1020.0
20260508122119 58 143 1.0 3.0 0.00 0.00 0.00 52 1020.0
20260508121618 59 93 3.0 3.0 0.00 0.00 0.00 52 1020.0
20260508121118 57 71 1.0 5.0 0.00 0.00 0.00 55 1020.0
20260508120619 57 47 1.0 2.0 0.00 0.00 0.00 61 1020.0
20260508120115 57 89 0.0 2.0 0.00 0.00 0.00 62 1020.0
20260508115617 57 124 0.0 2.0 0.00 0.00 0.00 64 1020.0
20260508115119 57 139 2.0 2.0 0.00 0.00 0.00 65 1020.0
20260508114615 57 144 1.0 2.0 0.00 0.00 0.00 65 1020.0
20260508114116 57 116 1.0 2.0 0.00 0.00 0.00 64 1020.0
20260508113615 58 118 1.0 1.0 0.00 0.00 0.00 62 1020.0
20260508113115 58 141 0.0 1.0 0.00 0.00 0.00 63 1020.0
20260508112616 59 129 0.0 1.0 0.00 0.00 0.00 61 1020.0
20260508112118 59 124 0.0 0.0 0.00 0.00 0.00 61 1020.0
20260508111617 58 230 0.0 0.0 0.00 0.00 0.00 62 1020.0
20260508111116 59 89 0.0 1.0 0.00 0.00 0.00 60 1019.0
20260508110616 59 52 0.0 2.0 0.00 0.00 0.00 61 1020.0
20260508110116 58 147 0.0 2.0 0.00 0.00 0.00 63 1020.0
20260508105616 59 130 0.0 2.0 0.00 0.00 0.00 63 1020.0
20260508105116 59 118 2.0 2.0 0.00 0.00 0.00 61 1019.0
20260508104616 60 94 0.0 1.0 0.00 0.00 0.00 59 1020.0
20260508104115 60 326 0.0 2.0 0.00 0.00 0.00 58 1020.0
20260508103616 60 23 1.0 2.0 0.00 0.00 0.00 58 1020.0
20260508103115 60 32 2.0 3.0 0.00 0.00 0.00 58 1020.0
20260508102616 60 39 2.0 3.0 0.00 0.00 0.00 58 1019.0
20260508102117 60 25 1.0 3.0 0.00 0.00 0.00 58 1020.0
20260508101617 60 26 2.0 2.0 0.00 0.00 0.00 57 1020.0
20260508101116 60 20 0.0 2.0 0.00 0.00 0.00 57 1020.0
20260508100617 60 33 0.0 3.0 0.00 0.00 0.00 57 1020.0
20260508100118 60 44 0.0 3.0 0.00 0.00 0.00 57 1020.0
20260508095619 60 19 0.0 1.0 0.00 0.00 0.00 57 1019.0
20260508095116 60 40 0.0 2.0 0.00 0.00 0.00 57 1019.0
20260508094615 60 28 1.0 2.0 0.00 0.00 0.00 58 1019.0
20260508094116 60 354 0.0 3.0 0.00 0.00 0.00 58 1019.0
20260508093616 60 29 3.0 3.0 0.00 0.00 0.00 58 1019.0
20260508093117 60 25 2.0 3.0 0.00 0.00 0.00 56 1019.0
20260508092616 60 48 0.0 2.0 0.00 0.00 0.00 56 1019.0
20260508092115 61 39 2.0 2.0 0.00 0.00 0.00 56 1019.0
20260508091617 60 11 0.0 1.0 0.00 0.00 0.00 55 1019.0
20260508091119 60 17 0.0 2.0 0.00 0.00 0.00 55 1019.0
20260508090617 60 57 2.0 3.0 0.00 0.00 0.00 56 1019.0
20260508090115 60 323 0.0 2.0 0.00 0.00 0.00 56 1019.0
20260508085616 60 130 0.0 1.0 0.00 0.00 0.00 57 1019.0
20260508085117 60 81 1.0 1.0 0.00 0.00 0.00 54 1019.0
20260508084617 61 6 0.0 1.0 0.00 0.00 0.00 53 1019.0
20260508084117 61 326 0.0 1.0 0.00 0.00 0.00 53 1019.0
20260508083616 62 44 0.0 1.0 0.00 0.00 0.00 51 1019.0
20260508083118 62 29 0.0 2.0 0.00 0.00 0.00 49 1018.0
20260508082616 62 5 1.0 2.0 0.00 0.00 0.00 49 1019.0
20260508082117 62 358 1.0 2.0 0.00 0.00 0.00 49 1018.0
20260508081617 63 0 0.0 3.0 0.00 0.00 0.00 48 1018.0
20260508081116 63 29 1.0 4.0 0.00 0.00 0.00 47 1018.0
20260508080615 63 16 1.0 4.0 0.00 0.00 0.00 47 1018.0
20260508080117 64 22 5.0 5.0 0.00 0.00 0.00 46 1018.0
20260508075618 64 34 3.0 5.0 0.00 0.00 0.00 45 1018.0
20260508075115 64 34 3.0 5.0 0.00 0.00 0.00 44 1018.0
20260508074618 64 53 3.0 6.0 0.00 0.00 0.00 44 1018.0
20260508074118 64 26 4.0 7.0 0.00 0.00 0.00 43 1018.0
20260508073616 65 29 4.0 7.0 0.00 0.00 0.00 42 1018.0
20260508073119 65 52 3.0 4.0 0.00 0.00 0.00 41 1018.0
20260508072615 66 36 3.0 4.0 0.00 0.00 0.00 39 1018.0
20260508072116 66 19 3.0 5.0 0.00 0.00 0.00 37 1018.0
20260508071616 67 42 5.0 7.0 0.00 0.00 0.00 34 1018.0
20260508071115 68 55 3.0 3.0 0.00 0.00 0.00 29 1017.0
20260508070617 69 358 2.0 3.0 0.00 0.00 0.00 27 1017.0
20260508070117 69 9 0.0 2.0 0.00 0.00 0.00 27 1017.0
20260508065618 71 0 0.0 3.0 0.00 0.00 0.00 25 1017.0
20260508065117 71 31 2.0 2.0 0.00 0.00 0.00 25 1017.0
20260508064617 71 311 1.0 3.0 0.00 0.00 0.00 25 1017.0
20260508064117 72 287 2.0 3.0 0.00 0.00 0.00 24 1017.0
20260508063615 72 284 1.0 3.0 0.00 0.00 0.00 24 1017.0
20260508063117 71 311 0.0 5.0 0.00 0.00 0.00 24 1017.0
20260508062616 72 330 1.0 5.0 0.00 0.00 0.00 23 1017.0
20260508062117 72 297 0.0 4.0 0.00 0.00 0.00 24 1017.0
20260508061615 71 336 1.0 5.0 0.00 0.00 0.00 24 1017.0
20260508061115 72 296 4.0 5.0 0.00 0.00 0.00 23 1017.0
20260508060615 72 316 2.0 4.0 0.00 0.00 0.00 23 1017.0
20260508060117 72 287 0.0 5.0 0.00 0.00 0.00 21 1017.0
20260508055615 72 293 4.0 6.0 0.00 0.00 0.00 22 1017.0
20260508055117 72 14 1.0 4.0 0.00 0.00 0.00 21 1017.0
20260508054617 72 296 3.0 6.0 0.00 0.00 0.00 21 1017.0
20260508054116 72 299 4.0 9.0 0.00 0.00 0.00 21 1017.0
20260508053616 72 269 4.0 8.0 0.00 0.00 0.00 21 1017.0
20260508053117 72 270 2.0 4.0 0.00 0.00 0.00 21 1017.0
20260508052615 72 304 4.0 6.0 0.00 0.00 0.00 21 1018.0
20260508052116 71 282 4.0 5.0 0.00 0.00 0.00 22 1018.0
20260508051616 72 329 2.0 11.0 0.00 0.00 0.00 21 1017.0
20260508051115 72 324 3.0 7.0 0.00 0.00 0.00 22 1018.0
20260508050617 72 189 0.0 5.0 0.00 0.00 0.00 24 1018.0
20260508050116 72 287 2.0 6.0 0.00 0.00 0.00 24 1018.0
20260508045615 73 250 6.0 9.0 0.00 0.00 0.00 23 1018.0
20260508045116 73 254 3.0 6.0 0.00 0.00 0.00 24 1018.0
20260508044615 72 291 7.0 9.0 0.00 0.00 0.00 25 1018.0
20260508044115 72 304 2.0 7.0 0.00 0.00 0.00 25 1018.0
20260508043615 72 211 4.0 5.0 0.00 0.00 0.00 25 1018.0
20260508043116 71 317 2.0 4.0 0.00 0.00 0.00 25 1018.0
20260508042615 70 300 6.0 7.0 0.00 0.00 0.00 26 1018.0
20260508042116 71 289 6.0 7.0 0.00 0.00 0.00 25 1018.0
20260508041616 72 283 5.0 9.0 0.00 0.00 0.00 25 1018.0
20260508041115 72 294 3.0 8.0 0.00 0.00 0.00 25 1018.0
20260508040621 72 277 3.0 5.0 0.00 0.00 0.00 26 1018.0
20260508040127 71 297 3.0 5.0 0.00 0.00 0.00 25 1018.0
20260508035616 70 301 3.0 9.0 0.00 0.00 0.00 26 1018.0
20260508035116 71 309 3.0 7.0 0.00 0.00 0.00 25 1018.0
20260508034618 71 250 6.0 7.0 0.00 0.00 0.00 26 1018.0
20260508034115 70 286 1.0 7.0 0.00 0.00 0.00 25 1018.0
20260508033616 70 255 4.0 7.0 0.00 0.00 0.00 25 1018.0
20260508033118 71 228 2.0 6.0 0.00 0.00 0.00 26 1018.0
20260508032615 70 251 3.0 6.0 0.00 0.00 0.00 26 1018.0
20260508032118 69 265 2.0 9.0 0.00 0.00 0.00 25 1018.0
20260508031615 70 283 4.0 9.0 0.00 0.00 0.00 24 1018.0
20260508031115 70 263 2.0 7.0 0.00 0.00 0.00 25 1018.0
20260508030616 69 260 2.0 5.0 0.00 0.00 0.00 27 1018.0
20260508030115 69 288 4.0 7.0 0.00 0.00 0.00 28 1019.0
20260508025616 69 342 2.0 5.0 0.00 0.00 0.00 28 1018.0
20260508025116 69 153 4.0 4.0 0.00 0.00 0.00 28 1019.0
20260508024616 69 296 6.0 7.0 0.00 0.00 0.00 27 1019.0
20260508024116 69 234 2.0 5.0 0.00 0.00 0.00 28 1019.0
20260508023617 68 277 3.0 5.0 0.00 0.00 0.00 27 1019.0
20260508023115 68 211 2.0 7.0 0.00 0.00 0.00 26 1019.0
20260508022616 68 186 2.0 5.0 0.00 0.00 0.00 27 1019.0
20260508022117 68 207 3.0 8.0 0.00 0.00 0.00 27 1019.0
20260508021617 67 260 2.0 6.0 0.00 0.00 0.00 26 1019.0
20260508021115 68 298 4.0 4.0 0.00 0.00 0.00 26 1019.0
20260508020615 67 211 7.0 7.0 0.00 0.00 0.00 26 1020.0
20260508020116 67 275 3.0 8.0 0.00 0.00 0.00 24 1020.0
20260508015616 67 306 4.0 9.0 0.00 0.00 0.00 25 1020.0
20260508015116 67 325 2.0 6.0 0.00 0.00 0.00 28 1020.0
20260508014615 67 227 5.0 10.0 0.00 0.00 0.00 27 1020.0
20260508014116 66 228 4.0 5.0 0.00 0.00 0.00 29 1020.0
20260508013615 66 349 1.0 6.0 0.00 0.00 0.00 28 1020.0